TimeEDT,TemperatureF,Dew PointF,Humidity,Sea Level PressureIn,VisibilityMPH,Wind Direction,Wind SpeedMPH,Gust SpeedMPH,PrecipitationIn,Events,Conditions,WindDirDegrees,DateUTC
12:15 AM,53.6,50.7,90,30.14,10.0,Calm,Calm,-,N/A,,Clear,0,2013-08-19 04:15:00
12:35 AM,53.6,49.3,85,30.14,10.0,Calm,Calm,-,N/A,,Clear,0,2013-08-19 04:35:00
12:55 AM,53.6,52.0,94,30.13,10.0,Calm,Calm,-,N/A,,Clear,0,2013-08-19 04:55:00
1:15 AM,51.8,50.0,94,30.14,10.0,Calm,Calm,-,N/A,,Clear,0,2013-08-19 05:15:00
1:35 AM,53.4,51.1,92,30.13,10.0,Calm,Calm,-,N/A,,Clear,0,2013-08-19 05:35:00
1:55 AM,50.9,48.7,92,30.13,10.0,Calm,Calm,-,N/A,,Clear,0,2013-08-19 05:55:00
2:14 AM,48.4,47.3,96,30.13,10.0,Calm,Calm,-,N/A,,Clear,0,2013-08-19 06:14:00
2:35 AM,48.4,46.6,93,30.13,10.0,Calm,Calm,-,N/A,,Clear,0,2013-08-19 06:35:00
2:55 AM,48.4,46.6,93,30.12,7.0,Calm,Calm,-,N/A,,Clear,0,2013-08-19 06:55:00
3:14 AM,48.4,47.3,96,30.12,7.0,Calm,Calm,-,N/A,,Clear,0,2013-08-19 07:14:00
3:35 AM,48.4,47.5,97,30.12,2.5,Calm,Calm,-,N/A,,Clear,0,2013-08-19 07:35:00
3:55 AM,48.0,46.9,96,30.12,10.0,Calm,Calm,-,N/A,,Clear,0,2013-08-19 07:55:00
4:14 AM,48.4,47.3,96,30.11,2.5,Calm,Calm,-,N/A,,Clear,0,2013-08-19 08:14:00
4:35 AM,48.2,47.7,98,30.11,2.0,Calm,Calm,-,N/A,,Clear,0,2013-08-19 08:35:00
4:55 AM,45.9,44.8,96,30.11,5.0,Calm,Calm,-,N/A,,Clear,0,2013-08-19 08:55:00
5:14 AM,46.0,46.0,100,30.11,7.0,Calm,Calm,-,N/A,,Clear,0,2013-08-19 09:14:00
5:35 AM,42.6,41.9,97,30.11,4.0,Calm,Calm,-,N/A,,Clear,0,2013-08-19 09:35:00
5:55 AM,42.4,42.3,99,30.11,1.8,Calm,Calm,-,N/A,,Mist,0,2013-08-19 09:55:00
6:14 AM,42.4,42.4,100,30.11,0.5,Calm,Calm,-,N/A,Fog,Fog,0,2013-08-19 10:14:00
6:35 AM,43.0,42.6,99,30.11,7.0,Calm,Calm,-,N/A,,Clear,0,2013-08-19 10:35:00
6:55 AM,41.7,41.2,98,30.11,7.0,Calm,Calm,-,N/A,,Clear,0,2013-08-19 10:55:00
7:14 AM,42.1,41.2,97,30.12,10.0,Calm,Calm,-,N/A,,Clear,0,2013-08-19 11:14:00
7:35 AM,45.7,43.9,93,30.11,10.0,Calm,Calm,-,N/A,,Clear,0,2013-08-19 11:35:00
7:54 AM,48.4,46.9,95,30.11,10.0,Calm,Calm,-,N/A,,Clear,0,2013-08-19 11:54:00
8:15 AM,50.9,47.7,89,30.12,10.0,Calm,Calm,-,N/A,,Clear,0,2013-08-19 12:15:00
8:35 AM,53.6,50.2,88,30.12,10.0,Calm,Calm,-,N/A,,Clear,0,2013-08-19 12:35:00
8:54 AM,58.5,52.2,80,30.12,10.0,Calm,Calm,-,N/A,,Clear,0,2013-08-19 12:54:00
9:15 AM,61.5,53.4,75,30.11,10.0,Calm,Calm,-,N/A,,Clear,0,2013-08-19 13:15:00
9:35 AM,68.0,57.0,68,30.11,10.0,SW,4.6,-,N/A,,Clear,220,2013-08-19 13:35:00
9:54 AM,68.9,56.1,64,30.10,10.0,SW,4.6,-,N/A,,Clear,230,2013-08-19 13:54:00
10:15 AM,73.6,58.1,58,30.10,10.0,SW,5.8,-,N/A,,Clear,230,2013-08-19 14:15:00
10:35 AM,73.6,57.4,57,30.10,10.0,WSW,5.8,-,N/A,,Clear,250,2013-08-19 14:35:00
10:54 AM,76.1,57.6,53,30.10,10.0,SW,8.1,-,N/A,,Clear,220,2013-08-19 14:54:00
11:15 AM,76.1,56.7,51,30.10,10.0,West,6.9,-,N/A,,Clear,280,2013-08-19 15:15:00
11:35 AM,76.6,55.0,47,30.10,10.0,SW,6.9,-,N/A,,Clear,230,2013-08-19 15:35:00
11:54 AM,78.8,54.5,43,30.10,10.0,West,10.4,-,N/A,,Clear,260,2013-08-19 15:54:00
12:15 PM,78.8,53.4,41,30.10,10.0,West,10.4,17.3,N/A,,Scattered Clouds,270,2013-08-19 16:15:00
12:35 PM,79.3,53.1,40,30.09,10.0,West,11.5,-,N/A,,Scattered Clouds,280,2013-08-19 16:35:00
12:54 PM,80.6,52.7,38,30.08,10.0,SW,9.2,-,N/A,,Scattered Clouds,220,2013-08-19 16:54:00
1:15 PM,81.0,51.3,36,30.07,10.0,WSW,11.5,17.3,N/A,,Scattered Clouds,240,2013-08-19 17:15:00
1:35 PM,82.0,50.7,34,30.06,10.0,WSW,9.2,-,N/A,,Scattered Clouds,240,2013-08-19 17:35:00
1:54 PM,81.5,50.9,34,30.06,10.0,West,10.4,19.6,N/A,,Clear,260,2013-08-19 17:54:00
2:15 PM,81.1,50.4,34,30.05,10.0,SW,6.9,16.1,N/A,,Clear,230,2013-08-19 18:15:00
2:35 PM,82.2,50.0,33,30.04,10.0,West,11.5,17.3,N/A,,Clear,270,2013-08-19 18:35:00
2:55 PM,82.6,49.6,32,30.04,10.0,West,10.4,-,N/A,,Clear,260,2013-08-19 18:55:00
3:15 PM,84.4,50.4,31,30.04,10.0,West,9.2,-,N/A,,Clear,270,2013-08-19 19:15:00
3:35 PM,84.2,52.2,33,30.03,10.0,West,11.5,-,N/A,,Clear,270,2013-08-19 19:35:00
3:55 PM,84.7,51.8,32,30.03,10.0,WSW,10.4,-,N/A,,Clear,250,2013-08-19 19:55:00
4:15 PM,83.8,50.9,32,30.03,10.0,WSW,6.9,18.4,N/A,,Clear,240,2013-08-19 20:15:00
4:34 PM,83.5,50.5,32,30.03,10.0,West,8.1,16.1,N/A,,Clear,280,2013-08-19 20:34:00
4:55 PM,83.7,51.3,32,30.02,10.0,WSW,6.9,-,N/A,,Clear,250,2013-08-19 20:55:00
5:15 PM,82.8,51.1,33,30.02,10.0,West,9.2,18.4,N/A,,Clear,280,2013-08-19 21:15:00
5:34 PM,83.7,50.9,32,30.02,10.0,WSW,13.8,17.3,N/A,,Clear,250,2013-08-19 21:34:00
5:55 PM,82.8,49.5,31,30.02,10.0,West,13.8,19.6,N/A,,Clear,280,2013-08-19 21:55:00
6:15 PM,82.4,48.6,31,30.02,10.0,SW,8.1,17.3,N/A,,Clear,230,2013-08-19 22:15:00
6:34 PM,81.9,48.9,32,30.02,10.0,West,11.5,18.4,N/A,,Clear,270,2013-08-19 22:34:00
6:55 PM,81.1,49.8,33,30.02,10.0,West,11.5,18.4,N/A,,Clear,260,2013-08-19 22:55:00
7:15 PM,79.9,51.3,37,30.02,10.0,West,10.4,-,N/A,,Clear,260,2013-08-19 23:15:00
7:34 PM,78.8,52.2,39,30.02,10.0,West,5.8,-,N/A,,Clear,260,2013-08-19 23:34:00
7:55 PM,78.8,54.0,42,30.03,10.0,West,5.8,-,N/A,,Clear,260,2013-08-19 23:55:00
8:15 PM,76.1,54.9,48,30.03,10.0,West,5.8,-,N/A,,Clear,270,2013-08-20 00:15:00
8:34 PM,73.6,54.5,51,30.03,10.0,West,4.6,-,N/A,,Clear,260,2013-08-20 00:34:00
8:55 PM,73.6,55.4,53,30.04,10.0,West,3.5,-,N/A,,Clear,260,2013-08-20 00:55:00
9:15 PM,73.6,56.3,55,30.04,10.0,WSW,4.6,-,N/A,,Clear,250,2013-08-20 01:15:00
9:34 PM,71.1,55.6,58,30.04,10.0,WSW,3.5,-,N/A,,Clear,240,2013-08-20 01:34:00
9:55 PM,69.1,55.0,61,30.05,10.0,West,3.5,-,N/A,,Clear,260,2013-08-20 01:55:00
10:15 PM,68.5,55.9,64,30.05,10.0,WSW,3.5,-,N/A,,Clear,250,2013-08-20 02:15:00
10:34 PM,68.5,56.7,66,30.05,10.0,Calm,Calm,-,N/A,,Clear,0,2013-08-20 02:34:00
10:55 PM,63.5,54.5,72,30.05,10.0,Calm,Calm,-,N/A,,Clear,0,2013-08-20 02:55:00
11:14 PM,64.0,56.1,75,30.04,10.0,SW,3.5,-,N/A,,Clear,220,2013-08-20 03:14:00
11:35 PM,63.1,54.3,73,30.05,10.0,Calm,Calm,-,N/A,,Clear,0,2013-08-20 03:35:00
11:55 PM,66.2,56.8,72,30.05,10.0,SSW,3.5,-,N/A,,Clear,200,2013-08-20 03:55:00